GW2402 Weather Reports


Display with metric or nautical units.
time (UTC)temp
F
wind
direction
speed
MPH
gust
MPH
rain 1hr
in
rain 24hr
in
rain mn
in
humidity
%
barometer
mb
20260503204553 79 0 0.0 3.0 0.00 0.00 0.00 42 1019.3
20260503203050 78 262 0.0 8.0 0.00 0.00 0.00 43 1019.7
20260503201547 79 266 0.0 5.0 0.00 0.00 0.00 43 1019.8
20260503200044 79 0 0.0 4.0 0.00 0.00 0.00 43 1020.0
20260503194549 79 104 1.0 4.0 0.00 0.00 0.00 44 1020.3
20260503193106 78 0 0.0 3.0 0.00 0.00 0.00 43 1020.6
20260503191550 78 271 0.0 3.0 0.00 0.00 0.00 45 1020.7
20260503190059 78 0 0.0 2.0 0.00 0.00 0.00 43 1020.8
20260503184543 77 325 0.0 3.0 0.00 0.00 0.00 47 1020.9
20260503183059 78 131 0.0 3.0 0.00 0.00 0.00 47 1021.3
20260503181547 78 0 0.0 4.0 0.00 0.00 0.00 44 1021.5
20260503180055 78 0 0.0 4.0 0.00 0.00 0.00 44 1021.7
20260503174551 78 0 0.0 2.0 0.00 0.00 0.00 46 1021.9
20260503173109 78 91 0.0 3.0 0.00 0.00 0.00 47 1022.2
20260503171552 77 360 2.0 6.0 0.00 0.00 0.00 42 1022.4
20260503081546 55 0 0.0 0.0 0.00 0.00 0.00 90 1021.2
20260503071622 56 0 0.0 0.0 0.00 0.00 0.00 89 1021.4
20260503054546 57 0 0.0 0.0 0.00 0.00 0.00 87 1021.7
20260503053045 58 0 0.0 0.0 0.00 0.00 0.00 86 1021.6
20260503051556 58 0 0.0 0.0 0.00 0.00 0.00 85 1021.7
20260503050039 58 0 0.0 0.0 0.00 0.00 0.00 84 1021.7
20260503044547 59 0 0.0 0.0 0.00 0.00 0.00 84 1021.5
20260503043048 59 0 0.0 0.0 0.00 0.00 0.00 82 1021.7
20260503041542 60 0 0.0 0.0 0.00 0.00 0.00 81 1021.4
20260503040040 60 0 0.0 0.0 0.00 0.00 0.00 79 1021.5
20260503034546 61 0 0.0 0.0 0.00 0.00 0.00 77 1021.4
20260503033048 61 0 0.0 0.0 0.00 0.00 0.00 74 1021.3
20260503031548 62 0 0.0 0.0 0.00 0.00 0.00 73 1021.0
20260503030043 62 0 0.0 0.0 0.00 0.00 0.00 72 1021.1
20260503024539 63 0 0.0 0.0 0.00 0.00 0.00 69 1020.8
20260503023048 64 0 0.0 0.0 0.00 0.00 0.00 69 1020.5
20260503021545 64 0 0.0 0.0 0.00 0.00 0.00 67 1020.3
20260503020053 66 0 0.0 0.0 0.00 0.00 0.00 63 1020.1
20260503014614 66 0 0.0 0.0 0.00 0.00 0.00 60 1020.1
20260503013043 67 0 0.0 0.0 0.00 0.00 0.00 57 1020.2
20260503011546 68 0 0.0 0.0 0.00 0.00 0.00 54 1019.8
20260503010048 69 0 0.0 0.0 0.00 0.00 0.00 54 1019.9
20260503004557 70 0 0.0 0.0 0.00 0.00 0.00 53 1019.8
20260503003058 71 0 0.0 0.0 0.00 0.00 0.00 53 1019.6
20260503001550 72 0 0.0 1.0 0.00 0.00 0.00 50 1019.6
20260503000049 73 0 0.0 1.0 0.00 0.00 0.00 48 1019.6
20260502234550 73 113 0.0 1.0 0.00 0.01 0.00 46 1019.7
20260502233053 73 0 0.0 1.0 0.00 0.01 0.00 49 1019.5
20260502231553 74 134 0.0 1.0 0.00 0.01 0.00 48 1019.5
20260502230052 74 0 0.0 2.0 0.00 0.01 0.00 48 1019.5
20260502224602 74 217 0.0 2.0 0.00 0.10 0.00 49 1019.5
20260502223046 74 0 0.0 1.0 0.00 0.10 0.00 46 1019.5
20260502221550 74 0 0.0 1.0 0.00 0.10 0.00 51 1019.7
20260502220043 75 0 0.0 1.0 0.00 0.10 0.00 49 1019.8
20260502214546 75 109 0.0 3.0 0.00 0.24 0.00 44 1019.9
20260502213048 75 0 0.0 2.0 0.00 0.24 0.00 46 1019.9
20260502211553 76 102 0.0 2.0 0.00 0.24 0.00 44 1020.1
20260502210042 75 115 0.0 2.0 0.00 0.24 0.00 44 1020.4